{"data":{"norad_id":64939,"intl_designator":"2025-158H","name":"STARLINK-34714","alt_names":[],"object_type":"PAYLOAD","status":"ACTIVE","operator":null,"country":"US","launch_date":"2025-07-27","launch_site_code":"AFWTR","launch_vehicle":null,"mission":null,"orbit_class":"UNKNOWN","rcs_meters":null,"size_class":null,"mass_kg":null,"dimensions":null,"purposes":["comms"],"wikipedia_slug":null,"has_3d_model":false,"image_url":null,"decayed_at":null,"tle_current":{"epoch":"2026-05-25T03:17:09.763584Z","epoch_age_seconds":59337,"freshness":"FRESH","line1":"1 64939U 25158H   26145.13691856  .00012446  00000+0  86514-3 0  9992","line2":"2 64939  97.4509   9.1348 0001867  89.4748 270.6694 15.05650625 46700","mean_motion":15.05650625,"eccentricity":0.0001867,"inclination_deg":97.4509,"raan_deg":9.1348,"arg_perigee_deg":89.4748,"mean_anomaly_deg":270.6694,"bstar":0.00086514,"rev_number":4670,"period_min":95.639717215274,"perigee_km":548.21584536181,"apogee_km":550.80262846667,"semimajor_km":6927.6462369142,"source":"CELESTRAK","updated_at":"2026-05-25T13:38:20.630672Z"}}}